星链-34027 (STARLINK-34027)

导读

STARLINK-34027是美国SpaceX星链星座的成员卫星,于2025年5月13日发射入轨。星链项目旨在构建全球卫星互联网星座,为全球偏远地区、海洋、空中等场景提供高速低延迟的互联网接入服务,该卫星承担星座组网任务,延续了星链大规模部署全球覆盖网络的发展节奏,服务天地一体化通信网络建设。

基本信息
目录编号:
63936
目录名称:
STARLINK-34027
国际标识:
2025-098L
轨道中心:
EARTH
卫星名称:
星链-34027
卫星全名:
星链-34027 (STARLINK-34027)
卫星状态:
在轨 (已飞行479 天)
发射日期:
2025-05-13 UTC
国别 :
美国 (US)
星等 :
--
轨道信息
数据来源 国际轨道数据
星历时间: 2026-09-04T04:00:02+0800
10小时前
查看轨道信息
半长轴: 6876.942km
偏心率: 0.0002672
轨道倾角: 70.000°
近地点辐角 238.602°
升交点赤经 184.826°
平近点角 287.510°
近地点: 496.967km
远地点: 500.643km
周期: 94.592分钟
每日圈数: 15.223333
详细信息
固有亮度:
5
最大亮度:
2.5
卫星平台:
Starlink V1.0
覆盖范围:
全球
运营商:
太空探索技术公司
运营商所在国:
美国
制造商(研发单位):
太空探索技术公司
制造商所在国:
美国
使用方式:
暂无
卫星简介
Starlink 计划是 SpaceX 推出的全球卫星互联网项目,通过发射低轨道卫星,为全球尤其是偏远地区提供高速、低延迟的互联网服务。自 2019 年起,Starlink 已部署数千颗卫星,旨在缩小全球数字鸿沟,推动互联网普及。该项目还为军事、航空等行业提供通信支持,带来广泛经济效益。
2D轨道图
3D轨道图
轨道高度分析图
轨道倾角分析图
轨道综合分析图
查看轨道综合分析图
交会数据列表
事件ID 空间交会对象 最接近时刻(TCA) 交会距离 交会风险概率(CRP) 交会风险指数(CRI) 操作
CDM_260831-091106-393606-875421
2026-08-31T
09:11:38+0000
0.700 km
远距离
8.567265E-5 中风险 0.74
CDM_260904-154004-866606-393621
2026-09-04T
15:40:02+0000
0.922 km
远距离
3.351586E-5 中风险 0.66
CDM_260904-040005-793106-393621
2026-09-04T
04:00:32+0000
0.952 km
远距离
2.794757E-5 中风险 0.64
CDM_260904-214406-393606-616521
2026-09-04T
21:44:43+0000
1.728 km
极远距离
3.728845E-6 低风险 0.46
CDM_260828-161906-393606-404321
2026-08-28T
16:19:22+0000
1.919 km
极远距离
3.076468E-6 低风险 0.45
CDM_260904-140604-866606-393621
2026-09-04T
14:06:02+0000
1.943 km
极远距离
2.899431E-6 低风险 0.44
CDM_260904-053105-951906-393621
2026-09-04T
05:31:09+0000
1.915 km
极远距离
2.897151E-6 低风险 0.44
CDM_260904-233705-920206-393621
2026-09-04T
23:37:50+0000
2.015 km
极远距离
2.558764E-6 低风险 0.43
CDM_260830-061202-953906-393621
2026-08-30T
06:12:41+0000
2.023 km
极远距离
2.541445E-6 低风险 0.43
CDM_260904-225706-393606-534121
2026-09-04T
22:57:00+0000
2.202 km
极远距离
1.742888E-6 低风险 0.4